logo dgac
Martes 06 de Diciembre del 2022
Buscar por aerodromo o helipuerto
Ingrese nombre de aeródromo, localidad o designador OACI:

Aeródromo: Alto Palena (PUB) (SCAP)

Ubicación: Palena, X Región, Chile (43º 36' 42'' S, 71º 48' 19'' W) Ver ubicación en el mapa

Pistas

Luces
Orientación Dimensión Pendiente Superficie Resistencia APCH THR RWY PAPI
07/25 876 x 18 0,50 ASPH PCN 27 F/A/Y/T No No No No
Horas de operación HJ
Elevación 273 m / 897 ft
Otra Información Adm : DGAC
Uso : PUB
TEL 652486286 CEL +56 961732475
Ubicado a 1 km N de Palena


Cámaras de Aeródromos. www.dgac.gob.cl.

Otra información ver AIP-Chile Volumen I AD 3.9-15.2-P
CCCM/FCCV Descargar
andera de Chile
Mapa de Alto Palena (PUB) (SCAP)

Último METAR

METAR SCAP 060700Z AUTO VRB02KT 9999 ////// 10/05 Q1015

Último TAF

No hay tafs registrados para este aeródromo

Últimas fotos cámaras

Imagen aerodromo Alto Palena (PUB) (SCAP) Oeste tomada el 06-12-2022 07:47:40 Imagen aerodromo Alto Palena (PUB) (SCAP) Este tomada el 06-12-2022 07:48:22

Último NOTAM

C5473/22 NOTAMN Q)SCTZ/QMWHW/IV/M/A/000/999/4337S07148W005 A)SCAP B)2212021345 C)2212071400 E)STP RWY 07/25 DEBIDO A WIP DE HOMBRES Y MAQUINARIAS, CTN